User: anonymous   Login
Location: Bakov nad Jizerou
(50.4784°N, 14.9394°E)
Time: 00:07:55
(UTC+00:00)
Language:

Cosmos 1725 Rocket - Orbit

View from above orbital plane
View from above orbital plane
View from above satellite
View from above satellite

Ground track
Ground track

The orbit data is extracted from the following two-line orbital elements,

1 16494U 86005B   21268.30032145  .00000046  00000-0  31165-4 0  9990
2 16494  82.9357 350.6176 0019446 188.5611 231.4804 13.76515694792683
Epoch (UTC): 25 September 2021 07:12:27
Eccentricity: 0.0019446
inclination: 82.9357°
perigee height: 962 km
apogee height: 990 km
right ascension of ascending node: 350.6176°
argument of perigee: 188.5611°
revolutions per day: 13.76515694
mean anomaly at epoch: 231.4804°
orbit number at epoch: 79268

The dashed part of the orbit path shows where the satellite is in the earth's shadow,  

DLR